Regional Weather Roundup
Issued by NWS

Home | Current Version | Previous Version | Graphics & Text | Print | Product List | Glossary Off
Versions: 1 2 3 4 5 6 7 8 9 10 11 12 13 14 15 16 17 18 19 20 21 22 23 24 25 26 27 28 29 30 31 32 33 34 35 36 37 38 39 40 41 42 43 44 45 46 47 48 49 50

000
ASUS43 KTOP 132008
RWRKS

WEATHER ROUNDUP FOR KANSAS
NATIONAL WEATHER SERVICE GOODLAND KS
300 PM CDT SUN JUL 13 2014

NOTE:  "FAIR" INDICATES FEW OR NO CLOUDS BELOW 12,000 FEET WITH NO
SIGNIFICANT WEATHER AND/OR OBSTRUCTIONS TO VISIBILITY.

KSZ001>006-013>018-027>032-041>047-132100-
NORTHWEST KANSAS

CITY           SKY/WX    TMP DP  RH WIND       PRES   REMARKS
GOODLAND       MOSUNNY   84  59  42 SE9       30.20F
HAYS           MOSUNNY   84  63  48 E7        30.11F
HILL CITY      SUNNY     91  57  31 E5        30.11F
RUSSELL        MOSUNNY   86  64  47 E7        30.08F
$$

KSZ061>065-074>080-084>089-132100-
SOUTHWEST KANSAS

CITY           SKY/WX    TMP DP  RH WIND       PRES   REMARKS
DODGE CITY     MOSUNNY   87  60  40 NE13G22   30.14F
ELKHART          N/A     89  60  37 SE7         N/A
GARDEN CITY    MOSUNNY   82  60  47 N6        30.17F
GREAT BEND     PTSUNNY   84  63  48 NE10      30.09R
LIBERAL        PTSUNNY   84  61  45 CALM      30.17F
PRATT          PTSUNNY   82  64  54 N10       30.11R
$$

KSZ066>073-081>083-090>101-132100-
SOUTHEAST KANSAS

CITY           SKY/WX    TMP DP  RH WIND       PRES   REMARKS
CHANUTE        SUNNY     90  66  45 NE5       29.99S
COFFEYVILLE    SUNNY     92  68  45 W9        29.96F HX  96
HUTCHINSON     PTSUNNY   84  68  58 NE7       30.07R
MEDICINE LODGE   N/A     87  71  58 NE10      30.05F
NEWTON         PTSUNNY   84  66  54 N14       30.09R
PARSONS        SUNNY     91  67  44 W5        29.99F
WICHITA INTL   PTSUNNY   88  70  55 N9        30.03F
WICHITA JABRA  SUNNY     87  71  58 NE9       30.03F
WICHITA MCCONL PTSUNNY   87  71  58 N14       30.03F
WINFIELD       MOSUNNY   87  73  62 N10       30.01F
$$

KSZ007>012-019>026-033>040-048>060-102>105-132100-
NORTHEAST KANSAS

CITY           SKY/WX    TMP DP  RH WIND       PRES   REMARKS
CONCORDIA      MOSUNNY   87  66  49 NE12      30.06F
EMPORIA        CLOUDY    85  69  58 NE9       30.01F
LAWRENCE       PTSUNNY   87  72  60 N9        30.00R
MANHATTAN      MOSUNNY   88  66  48 NE10      30.03S
MARYSVILLE     SUNNY     84  68  58 N3        30.04F
OLATHE IND     CLOUDY    84  72  67 N7        30.01F
OLATHE EXE     CLOUDY    85  70  60 NW8       30.00S
SALINA         PTSUNNY   89  64  43 NE8       30.06S
TOPEKA BILLARD MOSUNNY   85  73  67 N8        30.01S
TOPEKA FORBES  PTSUNNY   85  71  63 NE7       30.01F
$$


USA.gov is the U.S. government's official web portal to all federal, state and local government web resources and services.